FW9469 Weather Reports


time (UTC)temp
C
wind
direction
speed
KPH
gust
KPH
rain 1hr
cm
rain 24hr
cm
rain mn
cm
humidity
%
barometer
mb
20260906083104 21 0 0.0 3.2 0.00 0.00 0.00 93 1012.8
20260906081604 21 0 0.0 4.8 0.00 0.00 0.00 93 1012.7
20260906080109 21 0 0.0 3.2 0.00 0.00 0.00 93 1012.4
20260906074558 21 208 1.6 4.8 0.00 0.00 0.00 93 1012.5
20260906073055 21 0 0.0 0.0 0.00 0.00 0.00 93 1012.5
20260906071554 21 0 0.0 4.8 0.00 0.00 0.00 93 1012.5
20260906070052 21 0 0.0 0.0 0.00 0.00 0.00 92 1012.7
20260906064557 21 0 0.0 0.0 0.00 0.00 0.00 92 1012.4
20260906063055 21 0 0.0 4.8 0.00 0.00 0.00 92 1012.7
20260906061555 22 26 1.6 4.8 0.00 0.00 0.00 92 1012.9
20260906060155 22 0 0.0 1.6 0.00 0.00 0.00 92 1013.1
20260906054604 22 0 0.0 3.2 0.00 0.00 0.00 92 1013.4
20260906053105 22 0 0.0 1.6 0.00 0.00 0.00 91 1013.5
20260906051606 22 0 0.0 4.8 0.00 0.00 0.00 91 1013.7
20260906050115 22 0 0.0 4.8 0.00 0.00 0.00 91 1013.8
20260906044555 22 0 0.0 0.0 0.00 0.00 0.00 90 1013.7
20260906043054 22 0 0.0 3.2 0.00 0.00 0.00 90 1013.7
20260906041552 22 0 1.6 4.8 0.00 0.00 0.00 89 1013.7
20260906034559 23 0 0.0 1.6 0.00 0.00 0.00 89 1014.0
20260906033053 23 220 3.2 4.8 0.00 0.00 0.00 89 1013.8
20260906031625 23 172 1.6 4.8 0.00 0.00 0.00 89 1014.0
20260906030059 23 172 0.0 9.7 0.00 0.00 0.00 87 1014.0
20260906024600 23 168 3.2 6.4 0.00 0.00 0.00 86 1013.7
20260906023107 23 341 3.2 6.4 0.00 0.00 0.00 86 1013.5
20260906021551 23 208 0.0 3.2 0.00 0.00 0.00 86 1013.5
20260906014554 23 207 1.6 6.4 0.00 0.00 0.00 85 1013.8
20260906013105 24 0 0.0 3.2 0.00 0.00 0.00 84 1013.5
20260906011558 24 0 0.0 6.4 0.00 0.00 0.00 83 1013.4
20260906010054 25 171 4.8 8.0 0.00 0.00 0.00 81 1013.4
20260906004602 25 0 0.0 3.2 0.00 0.00 0.00 79 1012.9
20260906003054 25 0 0.0 4.8 0.00 0.00 0.00 79 1012.6
20260906001609 25 0 0.0 0.0 0.00 0.00 0.00 78 1012.4
20260906000100 26 0 0.0 6.4 0.00 0.00 0.00 78 1012.6
20260905234558 26 329 0.0 4.8 0.00 0.00 0.00 75 1012.6
20260905233106 26 309 3.2 6.4 0.00 0.00 0.00 74 1012.6
20260905231610 27 275 1.6 3.2 0.00 0.00 0.00 73 1012.8
20260905230108 27 275 1.6 4.8 0.00 0.00 0.00 72 1012.7
20260905224556 27 0 0.0 3.2 0.00 0.00 0.00 72 1012.4
20260905223056 27 352 1.6 8.0 0.00 0.00 0.00 72 1012.2
20260905221602 27 323 3.2 6.4 0.00 0.00 0.00 70 1012.5
20260905220104 27 350 1.6 8.0 0.00 0.00 0.00 70 1012.8
20260905214606 27 45 1.6 6.4 0.00 0.00 0.00 68 1012.7
20260905213105 27 360 3.2 16.1 0.00 0.00 0.00 66 1012.9
20260905211603 28 44 1.6 8.0 0.00 0.00 0.00 65 1013.2
20260905210107 28 232 3.2 8.0 0.00 0.00 0.00 65 1013.0
20260905204553 27 26 3.2 9.7 0.00 0.00 0.00 67 1012.8
20260905203100 27 48 1.6 6.4 0.00 0.00 0.00 65 1013.1
20260905201607 27 39 4.8 14.5 0.00 0.00 0.00 65 1013.4
20260905200130 28 59 6.4 11.3 0.00 0.00 0.00 63 1013.3
20260905194601 28 19 6.4 20.9 0.00 0.00 0.00 60 1014.5
20260905193103 29 13 11.3 25.7 0.00 0.00 0.00 58 1013.9
20260905191605 30 333 12.9 33.8 0.00 0.00 0.00 55 1013.6
20260905190054 34 28 8.0 17.7 0.00 0.00 0.00 49 1013.1
20260905184603 35 0 1.6 9.7 0.00 0.00 0.00 46 1012.4
20260905183056 36 287 3.2 11.3 0.00 0.00 0.00 46 1012.5
20260905181603 35 157 6.4 11.3 0.00 0.00 0.00 45 1012.7
20260905180115 35 83 4.8 17.7 0.00 0.00 0.00 48 1013.2
20260905174556 34 153 4.8 11.3 0.00 0.00 0.00 49 1013.3
20260905173129 35 26 3.2 16.1 0.00 0.00 0.00 49 1013.3
20260905171603 34 0 6.4 19.3 0.00 0.00 0.00 47 1013.4
20260905170105 34 212 1.6 11.3 0.00 0.00 0.00 52 1013.6
20260905164601 34 271 4.8 14.5 0.00 0.00 0.00 52 1014.2
20260905163105 33 111 3.2 11.3 0.00 0.00 0.00 53 1014.4
20260905161604 33 136 1.6 17.7 0.00 0.00 0.00 55 1014.5
20260905154602 33 169 1.6 6.4 0.00 0.00 0.00 56 1014.8
20260905153053 32 218 0.0 4.8 0.00 0.00 0.00 59 1015.0
20260905151558 32 281 1.6 6.4 0.00 0.00 0.00 60 1015.1
20260905150054 31 213 4.8 9.7 0.00 0.00 0.00 63 1015.1
20260905144552 31 163 1.6 9.7 0.00 0.00 0.00 66 1015.1
20260905143105 30 0 0.0 4.8 0.00 0.00 0.00 68 1015.3
20260905141602 29 0 1.6 3.2 0.00 0.00 0.00 72 1015.4
20260905140059 28 0 0.0 4.8 0.00 0.00 0.00 74 1015.5
20260905134605 28 0 1.6 6.4 0.00 0.00 0.00 76 1015.8
20260905133056 27 295 4.8 11.3 0.00 0.00 0.00 78 1015.8
20260905131554 26 243 0.0 4.8 0.00 0.00 0.00 81 1015.7
20260905124601 25 0 1.6 6.4 0.00 0.00 0.00 87 1015.6
20260905123104 24 0 0.0 0.0 0.00 0.00 0.00 89 1015.6
20260905121559 23 0 0.0 0.0 0.00 0.00 0.00 92 1015.6
20260905120105 22 0 0.0 0.0 0.00 0.00 0.00 93 1015.4
20260905114601 22 0 0.0 0.0 0.00 0.00 0.00 93 1015.3
20260905113059 22 0 0.0 0.0 0.00 0.00 0.00 93 1015.1
20260905111649 22 0 0.0 0.0 0.00 0.00 0.00 93 1014.8
20260905104559 22 0 0.0 0.0 0.00 0.00 0.00 94 1014.6
20260905103101 22 0 0.0 0.0 0.00 0.00 0.00 93 1014.4
20260905101600 22 0 0.0 0.0 0.00 0.00 0.00 93 1014.4
20260905100059 23 0 0.0 0.0 0.00 0.00 0.00 94 1014.4
20260905094552 23 0 0.0 0.0 0.00 0.00 0.00 93 1014.4
20260905093122 23 0 0.0 0.0 0.00 0.00 0.00 93 1014.4
20260905091600 23 0 0.0 0.0 0.00 0.00 0.00 93 1014.4
20260905090055 23 0 0.0 0.0 0.00 0.00 0.00 93 1014.5
20260905084557 23 0 0.0 0.0 0.00 0.00 0.00 93 1014.4